This is the latest recevied weather packets stored in our database for station/object EA4URC-10. If no packets are shown the sender has not sent any weather packets the latest 10 day(s).
| Time | Temp. | Humidity | Pressure | Rain* | Wind** | Luminosity | Snow |
|---|---|---|---|---|---|---|---|
| 1777966419 | 9.44° C | 86% | 1028.4 hPa | - | - | - | - |
| 1777964618 | 9.44° C | 93% | 1028.2 hPa | - | - | - | - |
| 1777962818 | 7.78° C | 100% | 1028.2 hPa | - | - | - | - |
| 1777961014 | 6.11° C | 100% | 1028.3 hPa | - | - | - | - |
| 1777959213 | 5.56° C | 100% | 1028.3 hPa | - | - | - | - |
| 1777957420 | 5.56° C | 100% | 1028.1 hPa | - | - | - | - |
| 1777955612 | 5° C | 100% | 1028.1 hPa | - | - | - | - |
| 1777952018 | 5.56° C | 100% | 1028.2 hPa | - | - | - | - |
| 1777950214 | 6.11° C | 100% | 1028.3 hPa | - | - | - | - |
| 1777948416 | 5.56° C | 100% | 1028.4 hPa | - | - | - | - |
| 1777946616 | 5° C | 100% | 1028.4 hPa | - | - | - | - |
| 1777944815 | 5.56° C | 100% | 1028.6 hPa | - | - | - | - |
| 1777943015 | 6.11° C | 100% | 1028.7 hPa | - | - | - | - |
| 1777941214 | 6.11° C | 100% | 1029 hPa | - | - | - | - |
| 1777939415 | 6.11° C | 100% | 1029.1 hPa | - | - | - | - |
| 1777937617 | 6.67° C | 96% | 1029.1 hPa | - | - | - | - |
| 1777934018 | 6.67° C | 85% | 1029.3 hPa | - | - | - | - |
| 1777932278 | 7.22° C | 81% | 1029.4 hPa | - | - | - | - |
| 1777932215 | 7.22° C | 81% | 1029.4 hPa | - | - | - | - |
| 1777930414 | 7.78° C | 78% | 1029.3 hPa | - | - | - | - |
| 1777928614 | 7.78° C | 81% | 1029.4 hPa | - | - | - | - |
| 1777926816 | 7.78° C | 81% | 1029.3 hPa | - | - | - | - |
| 1777925015 | 8.33° C | 77% | 1028.9 hPa | - | - | - | - |
| 1777923214 | 8.89° C | 72% | 1028.6 hPa | - | - | - | - |
| 1777921414 | 9.44° C | 72% | 1028.5 hPa | - | - | - | - |
* Rain since midnight (hover to see other rain measurements)
** Current wind speed in m/s (hover to see current wind gust speed)